TimeCST,TemperatureF,Dew PointF,Humidity,Sea Level PressureIn,VisibilityMPH,Wind Direction,Wind SpeedMPH,Gust SpeedMPH,PrecipitationIn,Events,Conditions,WindDirDegrees,DateUTC
6:00 AM,73,71,92,29.86,12,East,2.3,,,,Overcast,100,2012-10-26 12:00:00
6:00 AM,73.4,71.6,94,29.85,6.2,East,2.3,-,N/A,Fog,Overcast,100,2012-10-26 12:00:00
7:00 AM,75.2,73.4,94,29.88,6.2,ESE,3.5,-,N/A,,Mostly Cloudy,110,2012-10-26 13:00:00
8:00 AM,77.0,71.6,83,29.90,6.2,ESE,3.5,-,N/A,,Mostly Cloudy,120,2012-10-26 14:00:00
9:00 AM,82,73,68,29.93,12,SE,4.6,,,,Overcast,140,2012-10-26 15:00:00
9:00 AM,82.4,73.4,74,29.91,6.2,SE,4.6,-,N/A,,Mostly Cloudy,140,2012-10-26 15:00:00
10:00 AM,82.4,73.4,74,29.91,6.2,SSE,5.8,-,N/A,,Scattered Clouds,150,2012-10-26 16:00:00
11:00 AM,82.4,73.4,74,29.89,6.2,SSE,3.5,-,N/A,,Mostly Cloudy,150,2012-10-26 17:00:00
12:00 PM,80,74,78,29.88,6,SW,6.9,,,Rain,Light Rain,230,2012-10-26 18:00:00
12:00 PM,80.6,75.2,84,29.87,6.2,SW,6.9,-,N/A,Rain,Light Rain,230,2012-10-26 18:00:00
1:00 PM,86.0,73.4,66,29.84,6.2,West,4.6,-,N/A,,Mostly Cloudy,260,2012-10-26 19:00:00
2:00 PM,82.4,73.4,74,29.81,6.2,West,8.1,-,N/A,,Mostly Cloudy,260,2012-10-26 20:00:00
3:00 PM,78,74,85,29.81,12,South,5.8,,,Rain,Light Rain,190,2012-10-26 21:00:00
3:00 PM,78.8,73.4,83,29.80,6.2,South,5.8,-,N/A,Rain,Light Rain,190,2012-10-26 21:00:00
4:00 PM,77.0,73.4,89,29.81,6.2,ESE,5.8,-,N/A,Rain,Rain,120,2012-10-26 22:00:00
5:00 PM,75.2,73.4,94,29.82,5.6,Calm,Calm,-,N/A,Rain,Rain,0,2012-10-26 23:00:00
6:00 PM,75,73,93,29.84,5,North,5.8,,,Rain,Light Rain,10,2012-10-27 00:00:00
6:00 PM,75.2,73.4,94,29.83,5.0,North,5.8,-,N/A,Rain,Light Rain,10,2012-10-27 00:00:00
7:00 PM,75.2,73.4,94,29.85,5.6,North,3.5,-,N/A,,Drizzle,10,2012-10-27 01:00:00
8:00 PM,75.2,73.4,94,29.88,6.2,East,3.5,-,N/A,,Mostly Cloudy,90,2012-10-27 02:00:00